TimePDT,TemperatureF,Dew PointF,Humidity,Sea Level PressureIn,VisibilityMPH,Wind Direction,Wind SpeedMPH,Gust SpeedMPH,PrecipitationIn,Events,Conditions,WindDirDegrees,DateUTC
12:52 AM,88.0,48.9,26,29.60,10.0,NNW,3.5,-,N/A,,Clear,330,2013-09-15 07:52:00
1:52 AM,82.9,51.1,33,29.60,10.0,North,6.9,-,N/A,,Clear,360,2013-09-15 08:52:00
2:52 AM,81.0,52.0,36,29.60,10.0,NW,3.5,-,N/A,,Clear,320,2013-09-15 09:52:00
3:52 AM,79.0,53.1,40,29.61,10.0,NE,5.8,-,N/A,,Clear,40,2013-09-15 10:52:00
4:52 AM,80.1,52.0,38,29.62,10.0,NW,3.5,-,N/A,,Clear,310,2013-09-15 11:52:00
5:52 AM,78.1,52.0,40,29.64,10.0,Calm,Calm,-,N/A,,Clear,0,2013-09-15 12:52:00
6:52 AM,80.1,54.0,40,29.65,10.0,Calm,Calm,-,N/A,,Clear,0,2013-09-15 13:52:00
7:52 AM,84.9,52.0,32,29.67,10.0,Calm,Calm,-,N/A,,Clear,0,2013-09-15 14:52:00
8:52 AM,91.9,50.0,24,29.68,10.0,Calm,Calm,-,N/A,,Clear,0,2013-09-15 15:52:00
9:52 AM,96.1,53.1,23,29.70,10.0,Calm,Calm,-,N/A,,Clear,0,2013-09-15 16:52:00
10:52 AM,99.0,54.0,22,29.70,10.0,Variable,3.5,-,N/A,,Clear,0,2013-09-15 17:52:00
11:52 AM,102.9,52.0,18,29.68,10.0,East,8.1,-,N/A,,Clear,80,2013-09-15 18:52:00
12:52 PM,105.1,48.0,15,29.67,10.0,Variable,5.8,-,N/A,,Clear,0,2013-09-15 19:52:00
1:52 PM,105.1,48.9,15,29.65,10.0,Variable,3.5,-,N/A,,Scattered Clouds,0,2013-09-15 20:52:00
2:52 PM,107.1,48.0,14,29.63,10.0,Calm,Calm,-,N/A,,Scattered Clouds,0,2013-09-15 21:52:00
3:52 PM,107.1,48.0,14,29.61,10.0,Calm,Calm,-,N/A,,Mostly Cloudy,0,2013-09-15 22:52:00
4:52 PM,106.0,48.9,15,29.60,10.0,SSE,6.9,-,N/A,,Mostly Cloudy,160,2013-09-15 23:52:00
5:52 PM,105.1,50.0,16,29.60,10.0,South,6.9,-,N/A,,Scattered Clouds,180,2013-09-16 00:52:00
6:52 PM,102.0,52.0,19,29.60,10.0,SSW,3.5,-,N/A,,Partly Cloudy,200,2013-09-16 01:52:00
7:52 PM,99.0,53.1,21,29.62,10.0,Calm,Calm,-,N/A,,Clear,0,2013-09-16 02:52:00
8:52 PM,96.1,52.0,22,29.63,10.0,Calm,Calm,-,N/A,,Clear,0,2013-09-16 03:52:00
9:52 PM,90.0,57.0,33,29.64,10.0,North,-9999.0,-,N/A,,Clear,0,2013-09-16 04:52:00
10:52 PM,91.0,55.9,30,29.65,10.0,WSW,6.9,-,N/A,,Clear,240,2013-09-16 05:52:00
11:52 PM,89.1,55.9,32,29.65,10.0,West,4.6,-,N/A,,Clear,270,2013-09-16 06:52:00